DW6345 Murcia ES current weather conditions

sailwx.info

Wind from 235 at 7 knots gusting 14

Air temperature 12.2° C
Dewpoint 1.8° C

Last reported at 2019-Nov-12 05:04 UTC.
Time now 2019-Nov-12 06:11 UTC

Location: N 37°60' W 001°06'.
View on Google Maps.

See reports from other nearby stations

  
Tides and Currents Weather Stations Pressure Air Temp Water Temp Dewpoint Dewpoint Depression Visibility Wind Speed Wind Dir Waves Ship Positions
date/time (UTC)wind fromknots sea level pressurealtimeterstation pressurevisibilityair tempwater tempwave heightnotes
2019-Nov-12 05:04 235 7 gusting 14 12.2
2019-Nov-12 04:59 246 8 gusting 15 12.2
2019-Nov-12 04:54 258 8 gusting 17 12.2
2019-Nov-12 04:49 261 8 gusting 15 12.2
2019-Nov-12 04:44 278 8 gusting 12 12.2
2019-Nov-12 04:39 272 10 gusting 15 12.2
2019-Nov-12 04:34 276 10 gusting 15 12.2
2019-Nov-12 04:29 278 11 gusting 18 12.2
2019-Nov-12 04:24 281 11 gusting 15 12.2
2019-Nov-12 04:19 272 12 gusting 21 12.2
2019-Nov-12 04:14 282 12 gusting 20 12.8
2019-Nov-12 04:09 281 7 gusting 19 12.8
2019-Nov-12 04:04 270 7 gusting 19 12.8
2019-Nov-12 03:59 274 5 gusting 18 12.8
2019-Nov-12 03:54 255 5 gusting 13 12.8
2019-Nov-12 03:49 245 6 gusting 7 12.8
2019-Nov-12 03:44 231 6 gusting 15 12.8
2019-Nov-12 03:39 238 4 gusting 10 12.8
2019-Nov-12 03:34 259 4 gusting 14 12.8
2019-Nov-12 03:29 258 4 gusting 10 12.8
2019-Nov-12 03:24 227 4 gusting 5 12.8
2019-Nov-12 03:19 207 4 gusting 10 12.8
2019-Nov-12 03:14 227 4 gusting 7 13.3
2019-Nov-12 03:09 194 6 gusting 12 13.3
2019-Nov-12 03:04 187 6 gusting 6 13.3
2019-Nov-12 02:59 241 6 gusting 10 13.3
2019-Nov-12 02:54 273 6 gusting 18 13.3
2019-Nov-12 02:49 245 5 gusting 12 13.3
2019-Nov-12 02:44 276 5 gusting 11 13.3
2019-Nov-12 02:39 336 6 gusting 11 13.3
2019-Nov-12 02:34 252 6 gusting 11 13.3
2019-Nov-12 02:29 231 7 gusting 11 13.3
2019-Nov-12 02:24 259 7 gusting 15 13.3
2019-Nov-12 02:19 269 4 gusting 14 13.3
2019-Nov-12 02:14 274 4 gusting 14 13.3
2019-Nov-12 02:09 272 5 gusting 13 13.3
2019-Nov-12 02:04 276 5 gusting 10 13.3
2019-Nov-12 01:59 277 4 gusting 8 13.3
2019-Nov-12 01:54 280 4 gusting 7 13.3
2019-Nov-12 01:49 269 5 gusting 8 13.3
2019-Nov-12 01:44 261 5 gusting 8 13.3
2019-Nov-12 01:39 284 4 gusting 6 13.3
2019-Nov-12 01:34 265 4 gusting 8 13.9
2019-Nov-12 01:29 280 4 gusting 8 13.9
2019-Nov-12 01:24 269 4 gusting 5 13.9
2019-Nov-12 01:19 274 4 gusting 8 13.9
2019-Nov-12 01:14 258 4 gusting 8 13.9
2019-Nov-12 01:09 194 1 gusting 5 13.9
2019-Nov-12 01:04 190 1 gusting 6 13.9
2019-Nov-12 00:59 119 1 gusting 4 13.9
2019-Nov-12 00:54 239 1 gusting 4 14.4
2019-Nov-12 00:49 212 4 gusting 4 14.4
2019-Nov-12 00:44 190 4 gusting 5 14.4
2019-Nov-12 00:39 228 4 gusting 6 14.4
2019-Nov-12 00:34 226 4 gusting 5 14.4
2019-Nov-12 00:29 214 6 gusting 10 14.4
2019-Nov-12 00:19 259 10 gusting 12 14.4
2019-Nov-12 00:14 269 10 gusting 13 14.4
2019-Nov-12 00:09 271 8 gusting 18 14.4
2019-Nov-12 00:04 283 8 gusting 19 14.4
2019-Nov-11 23:59 275 6 gusting 14 14.4
2019-Nov-11 23:54 279 6 gusting 13 14.4
2019-Nov-11 23:49 282 6 gusting 13 14.4
2019-Nov-11 23:44 280 6 gusting 8 14.4
2019-Nov-11 23:39 284 6 gusting 12 14.4
2019-Nov-11 23:34 283 6 gusting 11 14.4
2019-Nov-11 23:29 273 10 gusting 13 14.4
2019-Nov-11 23:24 273 10 gusting 13 15.0
2019-Nov-11 23:19 282 10 gusting 15 15.0
2019-Nov-11 23:14 275 10 gusting 15 15.0
2019-Nov-11 23:09 277 8 gusting 18 15.0
2019-Nov-11 23:04 277 8 gusting 15 15.0
2019-Nov-11 22:59 290 7 gusting 13 15.0
2019-Nov-11 22:54 286 7 gusting 15 15.0
2019-Nov-11 22:49 287 6 gusting 13 15.0
2019-Nov-11 22:44 292 6 gusting 12 15.0
2019-Nov-11 22:39 291 7 gusting 12 15.0
2019-Nov-11 22:34 292 7 gusting 12 15.0
2019-Nov-11 22:29 291 7 gusting 13 15.0
2019-Nov-11 22:24 290 7 gusting 13 15.0
2019-Nov-11 22:19 289 6 gusting 15 15.0
2019-Nov-11 22:14 279 6 gusting 11 15.0
2019-Nov-11 22:09 283 5 gusting 11 15.0
2019-Nov-11 22:04 276 5 gusting 12 15.6
2019-Nov-11 21:59 291 5 gusting 7 15.6
2019-Nov-11 21:54 296 5 gusting 8 15.6
2019-Nov-11 21:49 288 6 gusting 7 15.6
2019-Nov-11 21:44 290 6 gusting 11 15.6
2019-Nov-11 21:39 289 6 gusting 10 15.6
2019-Nov-11 21:34 248 6 gusting 12 15.6
2019-Nov-11 21:29 270 7 gusting 11 15.6
2019-Nov-11 21:24 282 7 gusting 13 15.6
2019-Nov-11 21:19 285 7 gusting 12 15.6
2019-Nov-11 21:14 283 7 gusting 15 15.6
2019-Nov-11 21:09 295 8 gusting 15 15.6
2019-Nov-11 21:04 295 8 gusting 17 15.6
2019-Nov-11 20:59 304 6 gusting 19 15.6
2019-Nov-11 20:54 305 6 gusting 14 15.6
2019-Nov-11 20:49 309 7 gusting 13 15.6
2019-Nov-11 20:44 302 7 gusting 13 15.6
2019-Nov-11 20:39 300 8 gusting 13 15.6
2019-Nov-11 20:34 297 8 gusting 19 15.6
2019-Nov-11 20:29 288 8 gusting 14 15.6
2019-Nov-11 20:24 288 8 gusting 22 16.1
2019-Nov-11 20:19 288 10 gusting 13 16.1
2019-Nov-11 20:14 289 10 gusting 20 16.1
2019-Nov-11 20:09 292 11 gusting 18 16.1
2019-Nov-11 20:04 297 11 gusting 18 16.1
2019-Nov-11 19:59 292 10 gusting 19 16.1
2019-Nov-11 19:54 288 10 gusting 19 16.1
2019-Nov-11 19:49 298 11 gusting 15 16.1
2019-Nov-11 19:44 304 11 gusting 17 16.1
2019-Nov-11 19:39 290 10 gusting 18 16.7
2019-Nov-11 19:34 288 10 gusting 18 16.1
2019-Nov-11 19:29 290 11 gusting 21 16.1
2019-Nov-11 19:24 281 11 gusting 14 16.1
2019-Nov-11 19:19 289 11 gusting 15 16.7
2019-Nov-11 19:14 292 11 gusting 18 16.7
2019-Nov-11 19:09 289 8 gusting 17 16.7
2019-Nov-11 19:04 300 8 gusting 15 16.7
2019-Nov-11 18:59 295 11 gusting 15 16.7
2019-Nov-11 18:54 302 11 gusting 18 16.7
2019-Nov-11 18:49 302 10 gusting 19 16.7
2019-Nov-11 18:44 288 10 gusting 19 16.7
2019-Nov-11 18:39 302 8 gusting 22 16.7
2019-Nov-11 18:34 281 8 gusting 17 16.7
2019-Nov-11 18:29 295 10 gusting 13 16.7
2019-Nov-11 18:24 284 10 gusting 15 16.7
2019-Nov-11 18:19 288 8 gusting 21 17.2
2019-Nov-11 18:14 296 8 gusting 19 17.2
2019-Nov-11 18:09 273 7 gusting 19 17.2
2019-Nov-11 18:04 274 7 gusting 19 17.2
2019-Nov-11 17:59 266 6 gusting 18 16.7
2019-Nov-11 17:54 280 6 gusting 11 16.7
2019-Nov-11 17:49 296 6 gusting 11 16.7
2019-Nov-11 17:44 275 6 gusting 14 17.2
2019-Nov-11 17:39 263 7 gusting 14 17.2
2019-Nov-11 17:34 257 7 gusting 11 17.2
2019-Nov-11 17:29 290 8 gusting 21 17.2
2019-Nov-11 17:24 271 8 gusting 14 17.2
2019-Nov-11 17:19 286 8 gusting 15 17.2
2019-Nov-11 17:14 296 8 gusting 13 17.2
2019-Nov-11 17:09 280 11 gusting 13 17.2
2019-Nov-11 17:04 276 11 gusting 19 17.2
2019-Nov-11 16:59 284 11 gusting 19 17.2
2019-Nov-11 16:54 288 11 gusting 18 17.2
2019-Nov-11 16:49 290 12 gusting 19 17.2
2019-Nov-11 16:44 297 12 gusting 19 17.2
2019-Nov-11 16:39 300 8 gusting 22 17.2
2019-Nov-11 16:34 293 8 gusting 19 17.2
2019-Nov-11 16:29 300 8 gusting 13 17.2
2019-Nov-11 16:24 300 8 gusting 14 17.2
2019-Nov-11 16:19 307 10 gusting 18 17.2
2019-Nov-11 16:14 294 10 gusting 15 17.8
2019-Nov-11 16:09 291 8 gusting 15 17.8
2019-Nov-11 16:04 286 8 gusting 20 17.8
2019-Nov-11 15:59 298 12 gusting 13 17.8
2019-Nov-11 15:54 286 12 gusting 19 17.8
2019-Nov-11 15:49 281 10 gusting 20 17.8
2019-Nov-11 15:44 274 10 gusting 19 17.8
2019-Nov-11 15:39 299 11 gusting 13 17.8
2019-Nov-11 15:34 273 11 gusting 24 17.8
2019-Nov-11 15:29 277 7 gusting 20 17.8
2019-Nov-11 15:24 286 7 gusting 15 17.8
2019-Nov-11 15:19 285 11 gusting 13 17.8
2019-Nov-11 15:14 293 11 gusting 21 17.8
2019-Nov-11 15:09 290 10 gusting 22 17.8
2019-Nov-11 15:04 296 10 gusting 15 17.8
2019-Nov-11 14:59 302 6 gusting 21 17.8
2019-Nov-11 14:54 265 6 gusting 19 17.8
2019-Nov-11 14:49 288 6 gusting 22 17.8
2019-Nov-11 14:44 264 6 gusting 12 17.2
2019-Nov-11 14:39 295 6 gusting 13 17.2
2019-Nov-11 14:34 311 6 gusting 14 17.2
2019-Nov-11 14:29 320 6 gusting 13 17.2
2019-Nov-11 14:24 265 6 gusting 15 17.2
2019-Nov-11 14:19 269 8 gusting 15 17.2
2019-Nov-11 14:14 305 8 gusting 17 17.2
2019-Nov-11 14:09 281 7 gusting 18 17.2
2019-Nov-11 14:04 289 7 gusting 20 17.2
2019-Nov-11 13:59 270 7 gusting 20 17.2
2019-Nov-11 13:54 286 7 gusting 15 17.2
2019-Nov-11 13:49 292 5 gusting 19 17.2
2019-Nov-11 13:44 315 5 gusting 11 17.2
2019-Nov-11 13:39 337 10 gusting 10 17.2
2019-Nov-11 13:34 299 10 gusting 13 17.2
2019-Nov-11 13:29 288 8 gusting 20 17.2
2019-Nov-11 13:24 304 8 gusting 14 17.2
2019-Nov-11 13:19 306 10 gusting 19 17.2
2019-Nov-11 13:14 285 10 gusting 14 17.2
2019-Nov-11 13:09 271 8 gusting 18 17.2
2019-Nov-11 13:04 281 8 gusting 18 16.7
2019-Nov-11 12:59 286 10 gusting 17 17.2
2019-Nov-11 12:54 263 10 gusting 17 16.7
2019-Nov-11 12:49 255 7 gusting 21 16.7
2019-Nov-11 12:44 297 7 gusting 18 16.7
2019-Nov-11 12:39 275 8 gusting 14 16.7
2019-Nov-11 12:34 278 8 gusting 11 16.7
2019-Nov-11 12:29 292 11 gusting 14 16.1
2019-Nov-11 12:24 279 11 gusting 18 16.1
2019-Nov-11 12:19 262 11 gusting 19 16.1
2019-Nov-11 12:14 283 11 gusting 18 16.1
2019-Nov-11 12:09 305 11 gusting 20 16.1
2019-Nov-11 12:04 286 11 gusting 19 16.1
2019-Nov-11 11:59 288 6 gusting 15 16.1
2019-Nov-11 11:54 268 6 gusting 18 15.6
2019-Nov-11 11:49 259 6 gusting 11 15.6
2019-Nov-11 11:44 256 6 gusting 11 15.6
2019-Nov-11 11:39 237 6 gusting 14 15.6
2019-Nov-11 11:34 231 6 gusting 11 15.6
2019-Nov-11 11:29 273 7 gusting 12 15.0
2019-Nov-11 11:24 239 7 gusting 12 15.0
2019-Nov-11 11:19 250 6 gusting 13 15.0
2019-Nov-11 11:14 266 6 gusting 13 15.0
2019-Nov-11 11:09 262 6 gusting 13 14.4
2019-Nov-11 11:04 261 6 gusting 12 14.4
2019-Nov-11 10:59 272 8 gusting 14 14.4
2019-Nov-11 10:54 252 8 gusting 15 14.4
2019-Nov-11 10:49 243 10 gusting 19 14.4
2019-Nov-11 10:44 239 10 gusting 15 14.4
2019-Nov-11 10:39 247 8 gusting 15 14.4
2019-Nov-11 10:34 244 8 gusting 17 14.4
2019-Nov-11 10:29 253 8 gusting 15 14.4
2019-Nov-11 10:24 229 8 gusting 17 14.4
2019-Nov-11 10:19 234 7 gusting 17 14.4
2019-Nov-11 10:14 265 7 gusting 15 13.9
2019-Nov-11 10:09 292 6 gusting 14 13.9
2019-Nov-11 10:04 237 6 gusting 14 13.9
2019-Nov-11 09:59 275 6 gusting 13 13.9
2019-Nov-11 09:54 264 6 gusting 15 13.9
2019-Nov-11 09:49 245 6 gusting 13 13.9
2019-Nov-11 09:44 244 6 gusting 12 13.9
2019-Nov-11 09:39 256 7 gusting 17 13.9
2019-Nov-11 09:34 229 7 gusting 13 13.9
2019-Nov-11 09:29 261 6 gusting 12 13.9
2019-Nov-11 09:24 257 6 gusting 13 13.9
2019-Nov-11 09:19 288 5 gusting 11 13.9
2019-Nov-11 09:14 252 5 gusting 13 13.9
2019-Nov-11 09:09 245 6 gusting 10 13.9
2019-Nov-11 09:04 257 6 gusting 12 13.9
2019-Nov-11 08:59 240 7 gusting 10 13.3
2019-Nov-11 08:54 265 7 gusting 13 13.3
2019-Nov-11 08:49 272 6 gusting 17 13.3
2019-Nov-11 08:44 261 6 gusting 17 13.3
2019-Nov-11 08:39 279 7 gusting 13 13.3
2019-Nov-11 08:34 266 7 gusting 17 13.3
2019-Nov-11 08:29 273 7 gusting 12 13.3
2019-Nov-11 08:24 269 7 gusting 13 13.3
2019-Nov-11 08:19 278 7 gusting 18 12.8
2019-Nov-11 08:14 279 7 gusting 18 12.8
2019-Nov-11 08:09 287 5 gusting 14 12.8
2019-Nov-11 08:04 280 5 gusting 12 12.8
2019-Nov-11 07:59 057 7 gusting 7 12.8
2019-Nov-11 07:54 293 7 gusting 11 12.8
2019-Nov-11 07:49 291 8 gusting 13 12.8
2019-Nov-11 07:44 291 8 gusting 12 12.8
2019-Nov-11 07:39 280 6 gusting 14 12.8
2019-Nov-11 07:34 297 6 gusting 12 12.2
2019-Nov-11 07:29 286 7 gusting 13 12.2
2019-Nov-11 07:24 287 7 gusting 13 12.2
2019-Nov-11 07:19 275 6 gusting 13 12.2
2019-Nov-11 07:14 273 6 gusting 15 12.2
2019-Nov-11 07:09 247 5 gusting 19 12.2
2019-Nov-11 07:04 258 5 gusting 15 11.7
2019-Nov-11 06:59 257 6 gusting 6 11.7
2019-Nov-11 06:54 281 6 gusting 12 11.7
2019-Nov-11 06:49 277 6 gusting 13 11.7
2019-Nov-11 06:44 286 6 gusting 18 11.7
2019-Nov-11 06:39 294 5 gusting 12 11.7
2019-Nov-11 06:34 254 5 gusting 12 11.7
2019-Nov-11 06:29 263 6 gusting 8 11.7
2019-Nov-11 06:24 289 6 gusting 7 11.7
2019-Nov-11 06:19 265 6 gusting 11 11.7
2019-Nov-11 06:14 277 6 gusting 13 11.7
2019-Nov-11 06:09 282 4 gusting 12 11.7
2019-Nov-11 06:04 270 4 gusting 7 11.1
2019-Nov-11 05:59 281 4 gusting 8 11.1
2019-Nov-11 05:54 254 4 gusting 6 11.1
2019-Nov-11 05:49 300 5 gusting 6 11.1
2019-Nov-11 05:44 266 5 gusting 6 11.7
2019-Nov-11 05:39 278 4 gusting 11 11.1
2019-Nov-11 05:34 276 4 gusting 10 11.1
2019-Nov-11 05:29 271 4 gusting 11 11.1
2019-Nov-11 05:24 236 4 gusting 7 11.1
2019-Nov-11 05:19 183 2 gusting 7 11.1
2019-Nov-11 05:14 181 2 gusting 6 11.1
2019-Nov-11 05:09 196 5 gusting 6 11.1
2019-Nov-11 05:04 223 5 gusting 10 11.1
2019-Nov-11 04:59 266 8 gusting 7 11.1
2019-Nov-11 04:50 308 13 gusting 15 11.1
2019-Nov-11 04:45 291 13 gusting 20 11.7
2019-Nov-11 04:40 296 14 gusting 21 11.7
2019-Nov-11 04:35 286 14 gusting 24 11.7
2019-Nov-11 04:30 287 15 gusting 20 11.7
2019-Nov-11 04:25 284 15 gusting 26 11.7
2019-Nov-11 04:20 281 14 gusting 25 11.1
2019-Nov-11 04:15 276 14 gusting 27 11.1
2019-Nov-11 04:10 283 11 gusting 25 11.1
2019-Nov-11 04:05 283 11 gusting 24 11.1
2019-Nov-11 04:00 287 10 gusting 19 11.1
2019-Nov-11 03:55 278 10 gusting 19 11.1
2019-Nov-11 03:50 284 10 gusting 15 11.1
2019-Nov-11 03:45 281 10 gusting 18 11.1
2019-Nov-11 03:40 277 12 gusting 15 11.1
2019-Nov-11 03:35 283 12 gusting 26 11.1
2019-Nov-11 03:30 281 12 gusting 26 11.1
2019-Nov-11 03:25 287 12 gusting 22 11.1
2019-Nov-11 03:20 275 12 gusting 22 11.1
2019-Nov-11 03:15 281 12 gusting 18 11.1
2019-Nov-11 03:10 282 13 gusting 19 11.1
2019-Nov-11 03:05 272 13 gusting 19 11.7
2019-Nov-11 03:00 285 10 gusting 25 11.7
2019-Nov-11 02:55 274 10 gusting 26 11.7
2019-Nov-11 02:50 272 10 gusting 19 11.7
2019-Nov-11 02:45 264 10 gusting 20 11.7
2019-Nov-11 02:40 266 11 gusting 20 11.7
2019-Nov-11 02:35 284 11 gusting 19 11.7
2019-Nov-11 02:30 293 13 gusting 20 11.7
2019-Nov-11 02:25 284 13 gusting 19 11.7
2019-Nov-11 02:20 276 12 gusting 22 11.7
2019-Nov-11 02:15 278 12 gusting 22 11.7
2019-Nov-11 02:10 280 8 gusting 19 11.7
2019-Nov-11 02:05 282 8 gusting 22 11.7
2019-Nov-11 02:00 280 6 gusting 18 11.1
2019-Nov-11 01:55 292 6 gusting 18 11.1
2019-Nov-11 01:50 293 6 gusting 11 11.7
2019-Nov-11 01:45 291 6 gusting 10 11.7
2019-Nov-11 01:40 287 6 gusting 7 11.7
2019-Nov-11 01:35 282 6 gusting 13 11.7
2019-Nov-11 01:30 268 4 gusting 10 11.7
2019-Nov-11 01:25 291 4 gusting 10 11.7
2019-Nov-11 01:20 269 4 gusting 7 11.7
2019-Nov-11 01:15 248 4 gusting 6 12.2
2019-Nov-11 01:10 302 5 gusting 5 12.2
2019-Nov-11 01:05 226 5 gusting 11 12.2
2019-Nov-11 01:00 182 5 gusting 12 12.2
2019-Nov-11 00:55 161 5 gusting 12 12.2
2019-Nov-11 00:50 083 4 gusting 10 12.2
2019-Nov-11 00:45 177 4 gusting 8 12.2
2019-Nov-11 00:40 150 4 gusting 6 12.2
2019-Nov-11 00:35 133 4 gusting 6 12.2
2019-Nov-11 00:30 130 6 gusting 7 12.2
2019-Nov-11 00:25 199 6 gusting 6 12.2
2019-Nov-11 00:20 225 5 gusting 13 12.2
2019-Nov-11 00:15 198 5 gusting 11 12.2
2019-Nov-11 00:10 178 5 gusting 8 12.2
2019-Nov-11 00:05 129 5 gusting 7 12.2
2019-Nov-11 00:00 155 4 gusting 7 12.2
2019-Nov-10 23:55 123 4 gusting 6 12.2
2019-Nov-10 23:50 151 4 gusting 6 12.2
2019-Nov-10 23:45 153 4 gusting 7 12.2
2019-Nov-10 23:40 197 1 gusting 6 12.2
2019-Nov-10 23:35 084 1 gusting 5 12.2
2019-Nov-10 23:30 066 5 gusting 4 12.8
2019-Nov-10 23:25 351 5 gusting 7 12.8
2019-Nov-10 23:20 051 4 gusting 11 12.8
2019-Nov-10 23:15 016 4 gusting 10 12.8
2019-Nov-10 23:10 139 4 gusting 8 12.8
2019-Nov-10 23:05 268 4 gusting 7 12.8
2019-Nov-10 23:00 071 4 gusting 6 12.8
2019-Nov-10 22:55 140 4 gusting 5 12.8
2019-Nov-10 22:50 094 5 gusting 8 12.8
2019-Nov-10 22:45 030 5 gusting 8 12.8
2019-Nov-10 22:40 218 7 gusting 10 12.8
2019-Nov-10 22:35 312 7 gusting 14 12.8
2019-Nov-10 22:30 272 7 gusting 13 12.8
2019-Nov-10 22:25 265 7 gusting 20 12.8
2019-Nov-10 22:20 259 10 gusting 15 12.8
2019-Nov-10 22:15 262 10 gusting 15 12.8
2019-Nov-10 22:10 274 7 gusting 19 13.3
2019-Nov-10 22:05 280 7 gusting 15 13.3
2019-Nov-10 22:00 278 8 gusting 13 13.3
2019-Nov-10 21:55 276 8 gusting 15 13.3
2019-Nov-10 21:50 268 12 gusting 15 13.3
2019-Nov-10 21:45 280 12 gusting 17 13.3
2019-Nov-10 21:40 272 11 gusting 21 13.3
2019-Nov-10 21:35 275 11 gusting 19 13.3
2019-Nov-10 21:30 271 11 gusting 19 13.3
2019-Nov-10 21:25 281 11 gusting 19 13.3
2019-Nov-10 21:20 274 13 gusting 21 13.3
2019-Nov-10 21:15 285 13 gusting 18 13.3
2019-Nov-10 21:10 285 12 gusting 21 13.3
2019-Nov-10 21:05 287 12 gusting 22 13.3
2019-Nov-10 21:00 278 13 gusting 19 13.3
2019-Nov-10 20:55 287 13 gusting 20 13.3
2019-Nov-10 20:50 285 13 gusting 20 13.3
2019-Nov-10 20:45 286 13 gusting 20 13.9
2019-Nov-10 20:40 283 10 gusting 22 13.9
2019-Nov-10 20:35 286 10 gusting 18 13.9
2019-Nov-10 20:30 286 12 gusting 19 13.9
2019-Nov-10 20:25 281 12 gusting 17 13.9
2019-Nov-10 20:20 282 10 gusting 18 13.9
2019-Nov-10 20:15 283 10 gusting 20 13.9
2019-Nov-10 20:10 295 12 gusting 19 13.9
2019-Nov-10 20:05 294 12 gusting 18 14.4
2019-Nov-10 20:00 289 8 gusting 21 14.4
2019-Nov-10 19:55 282 8 gusting 20 14.4
2019-Nov-10 19:50 290 8 gusting 17 14.4
2019-Nov-10 19:45 284 8 gusting 13 14.4
2019-Nov-10 19:40 292 8 gusting 19 14.4
2019-Nov-10 19:35 274 8 gusting 11 14.4
2019-Nov-10 19:30 291 7 gusting 17 14.4
2019-Nov-10 19:25 280 7 gusting 22 14.4
2019-Nov-10 19:20 261 10 gusting 17 14.4
2019-Nov-10 19:15 274 10 gusting 18 14.4
2019-Nov-10 19:10 280 10 gusting 18 14.4
2019-Nov-10 19:05 269 10 gusting 18 15.0
2019-Nov-10 19:00 284 10 gusting 19 15.0
2019-Nov-10 18:55 269 10 gusting 19 15.0
2019-Nov-10 18:50 275 10 gusting 21 15.0
2019-Nov-10 18:45 290 10 gusting 18 15.0
2019-Nov-10 18:40 274 8 gusting 20 15.0
2019-Nov-10 18:35 268 8 gusting 14 15.0
2019-Nov-10 18:30 263 6 gusting 15 15.0
2019-Nov-10 18:25 277 6 gusting 17 15.0
2019-Nov-10 18:20 270 7 gusting 13 15.0
2019-Nov-10 18:15 267 7 gusting 10 15.0
2019-Nov-10 18:10 281 7 gusting 15 15.0
2019-Nov-10 18:05 279 7 gusting 20 15.0
2019-Nov-10 18:00 266 6 gusting 17 15.0
2019-Nov-10 17:55 292 6 gusting 15 15.0
2019-Nov-10 17:50 274 6 gusting 15 15.0
2019-Nov-10 17:45 265 6 gusting 13 15.0
2019-Nov-10 17:40 265 7 gusting 11 15.6
2019-Nov-10 17:35 273 7 gusting 13 15.6
2019-Nov-10 17:30 276 13 gusting 13 15.6
2019-Nov-10 17:25 279 13 gusting 19 15.6
2019-Nov-10 17:20 285 12 gusting 24 15.6
2019-Nov-10 17:15 283 12 gusting 19 15.6
2019-Nov-10 17:10 271 10 gusting 25 15.6
2019-Nov-10 17:05 288 10 gusting 19 15.6
2019-Nov-10 17:00 279 10 gusting 19 15.6
2019-Nov-10 16:55 273 10 gusting 15 15.6
2019-Nov-10 16:50 280 8 gusting 19 16.1
2019-Nov-10 16:45 286 8 gusting 19 16.1
2019-Nov-10 16:40 284 6 gusting 19 16.1
2019-Nov-10 16:35 264 6 gusting 12 16.1
2019-Nov-10 16:30 283 8 gusting 18 16.1
2019-Nov-10 16:25 230 8 gusting 14 16.1
2019-Nov-10 16:20 278 12 gusting 11 16.1
2019-Nov-10 16:15 266 12 gusting 19 16.1
2019-Nov-10 16:10 265 13 gusting 18 16.1
2019-Nov-10 16:05 291 13 gusting 24 16.1
2019-Nov-10 16:00 274 13 gusting 18 16.1
2019-Nov-10 15:55 298 13 gusting 28 16.1
2019-Nov-10 15:50 264 13 gusting 19 16.1
2019-Nov-10 15:45 285 13 gusting 21 16.1
2019-Nov-10 15:40 272 15 gusting 20 16.1
2019-Nov-10 15:35 293 15 gusting 26 16.1
2019-Nov-10 15:30 298 14 gusting 26 16.1
2019-Nov-10 15:25 285 14 gusting 30 16.1
2019-Nov-10 15:20 283 14 gusting 26 16.7
2019-Nov-10 15:15 281 14 gusting 24 16.7
2019-Nov-10 15:10 292 15 gusting 20 16.7
2019-Nov-10 15:05 280 15 gusting 31 16.7
2019-Nov-10 15:00 283 18 gusting 27 16.7
2019-Nov-10 14:55 291 18 gusting 30 16.7
2019-Nov-10 14:50 290 18 gusting 28 16.7
2019-Nov-10 14:45 292 18 gusting 33 16.7
2019-Nov-10 14:40 291 18 gusting 33 16.7
2019-Nov-10 14:35 279 18 gusting 26 16.7
2019-Nov-10 14:30 288 19 gusting 30 16.7
2019-Nov-10 14:25 287 19 gusting 32 16.7
2019-Nov-10 14:20 278 18 gusting 28 16.7
2019-Nov-10 14:15 278 18 gusting 34 16.7
2019-Nov-10 14:10 288 19 gusting 32 16.7
2019-Nov-10 14:05 286 19 gusting 37 16.7
2019-Nov-10 14:00 289 18 gusting 31 16.7
2019-Nov-10 13:55 279 18 gusting 33 16.7
2019-Nov-10 13:50 283 18 gusting 30 16.7
2019-Nov-10 13:45 303 18 gusting 31 16.7
2019-Nov-10 13:40 293 17 gusting 27 16.7
2019-Nov-10 13:35 294 17 gusting 33 16.7
2019-Nov-10 13:30 298 14 gusting 26 16.7
2019-Nov-10 13:25 308 14 gusting 27 16.7
2019-Nov-10 13:20 285 15 gusting 27 16.7
2019-Nov-10 13:15 280 15 gusting 22 16.7
2019-Nov-10 13:10 292 15 gusting 26 16.7
2019-Nov-10 13:05 279 15 gusting 31 16.7
2019-Nov-10 13:00 298 15 gusting 24 16.7
2019-Nov-10 12:55 282 15 gusting 28 16.7
2019-Nov-10 12:50 289 14 gusting 30 16.7
2019-Nov-10 12:45 274 14 gusting 24 16.7
2019-Nov-10 12:40 271 13 gusting 25 16.7
2019-Nov-10 12:35 293 13 gusting 30 16.7
2019-Nov-10 12:30 285 18 gusting 26 16.7
2019-Nov-10 12:25 282 18 gusting 22 16.1
2019-Nov-10 12:20 287 15 gusting 32 16.1
2019-Nov-10 12:15 285 15 gusting 31 16.1
2019-Nov-10 12:10 304 13 gusting 31 16.1
2019-Nov-10 12:05 291 13 gusting 26 16.1
2019-Nov-10 12:00 297 15 gusting 26 16.1
2019-Nov-10 11:55 294 15 gusting 20 16.1
2019-Nov-10 11:50 291 13 gusting 30 16.1
2019-Nov-10 11:45 302 13 gusting 24 16.1
2019-Nov-10 11:40 287 15 gusting 24 16.1
2019-Nov-10 11:35 267 15 gusting 26 15.6
2019-Nov-10 11:30 293 18 gusting 22 15.6
2019-Nov-10 11:25 292 18 gusting 32 15.6
2019-Nov-10 11:20 291 17 gusting 26 15.6
2019-Nov-10 11:15 283 17 gusting 32 15.6
2019-Nov-10 11:10 283 19 gusting 26 15.6
2019-Nov-10 11:05 288 19 gusting 31 15.0
2019-Nov-10 11:00 289 19 gusting 27 15.6
2019-Nov-10 10:55 286 19 gusting 31 15.0
2019-Nov-10 10:50 286 14 gusting 33 15.0
2019-Nov-10 10:45 285 14 gusting 27 15.0
2019-Nov-10 10:40 289 13 gusting 26 15.0
2019-Nov-10 10:35 293 13 gusting 30 15.0
2019-Nov-10 10:30 274 14 gusting 26 15.0
2019-Nov-10 10:25 275 14 gusting 21 15.0
2019-Nov-10 10:20 287 14 gusting 26 15.0
2019-Nov-10 10:15 300 14 gusting 26 15.0
2019-Nov-10 10:10 301 12 gusting 25 15.0
2019-Nov-10 10:05 286 12 gusting 26 15.0
2019-Nov-10 10:00 296 13 gusting 20 15.0
2019-Nov-10 09:55 301 13 gusting 20 14.4
2019-Nov-10 09:50 296 14 gusting 22 14.4
2019-Nov-10 09:45 297 14 gusting 25 14.4
2019-Nov-10 09:40 291 18 gusting 25 14.4
2019-Nov-10 09:35 304 18 gusting 28 14.4
2019-Nov-10 09:30 282 15 gusting 27 14.4
2019-Nov-10 09:25 297 15 gusting 30 14.4
2019-Nov-10 09:20 296 14 gusting 30 14.4
2019-Nov-10 09:15 283 14 gusting 27 14.4
2019-Nov-10 09:10 276 19 gusting 30 14.4
2019-Nov-10 09:05 279 19 gusting 19 14.4
2019-Nov-10 09:00 293 13 gusting 35 14.4
2019-Nov-10 08:55 292 13 gusting 35 14.4
2019-Nov-10 08:50 286 12 gusting 22 14.4
2019-Nov-10 08:45 291 12 gusting 19 14.4
2019-Nov-10 08:40 291 12 gusting 24 13.9
2019-Nov-10 08:35 281 12 gusting 24 13.9
2019-Nov-10 08:30 279 13 gusting 18 13.9
2019-Nov-10 08:25 287 13 gusting 22 13.3
2019-Nov-10 08:20 291 13 gusting 24 13.3
2019-Nov-10 08:15 283 13 gusting 21 13.3
2019-Nov-10 08:10 276 13 gusting 24 13.3
2019-Nov-10 08:05 297 13 gusting 24 13.3
2019-Nov-10 08:00 284 14 gusting 25 13.3
2019-Nov-10 07:55 281 14 gusting 22 13.3
2019-Nov-10 07:50 285 13 gusting 27 13.3
2019-Nov-10 07:45 286 13 gusting 24 13.3
2019-Nov-10 07:40 275 13 gusting 26 13.3
2019-Nov-10 07:35 279 13 gusting 24 13.9
2019-Nov-10 07:30 281 13 gusting 27 13.9
2019-Nov-10 07:25 292 13 gusting 27 13.9
2019-Nov-10 07:20 282 13 gusting 25 13.9
2019-Nov-10 07:15 298 13 gusting 20 13.9
2019-Nov-10 07:10 301 10 gusting 24 14.4
2019-Nov-10 07:05 302 10 gusting 22 14.4
2019-Nov-10 07:00 301 7 gusting 19 14.4
2019-Nov-10 06:55 288 7 gusting 14 14.4
2019-Nov-10 06:50 290 6 gusting 13 14.4
2019-Nov-10 06:45 279 6 gusting 18 14.4
2019-Nov-10 06:40 285 7 gusting 14 14.4
2019-Nov-10 06:35 271 7 gusting 10 14.4
2019-Nov-10 06:30 278 7 gusting 13 14.4
2019-Nov-10 06:25 271 7 gusting 19 14.4
2019-Nov-10 06:20 277 10 gusting 14 14.4
2019-Nov-10 06:15 285 10 gusting 15 14.4
2019-Nov-10 06:10 287 11 gusting 19 14.4
2019-Nov-10 06:05 289 11 gusting 19 14.4
2019-Nov-10 06:00 289 11 gusting 17 14.4